Weather in Sergeyevka

Russia / Amur Oblast     50°45′28″N   127°17′44″E
temp.,
°C
wind,
m/s
gust,
m/s
humid.,
%
clouds,
%
prec.,
mm/h
press.,
hPa
HPBL,
m
5 december, sun
sun500:00−16s249616 0.0 101375
03:00−16sse249768 0.0 101264
06:00−16sse229841 0.0 101229
09:00−16sse239966 0.0 101240
12:00−10sse2390100 0.0 1010153
15:00−8se2394100 0.0 1009147
18:00−12wsw229697 0.0 101126
21:00−14wnw249696 0.0 101283
6 december, mon
mon600:00−17wnw22965 0.0 101432
03:00−18wsw11975 0.0 101611
06:00−17wsw119755 0.0 101622
09:00−13w25883 0.0 101897
12:00−6wnw513650 0.0 1019708
15:00−6wnw510574 0.0 1020425
18:00−12wsw388891 0.0 1022105
21:00−10sw3883100 0.0 1022161
7 december, tue
tue700:00−10ssw2485100 0.0 102189
03:00−12ssw229091 0.0 102141
06:00−13ssw119396 0.0 102120
09:00−15w11945 0.0 102411
12:00−7wsw01764 0.0 1023120
15:00−7se11885 0.0 102410
18:00−14ssw119613 0.0 102710
21:00−15sw229728 0.0 102818
8 december, wed
wed800:00−15ssw11965 0.0 102811
03:00−15ssw119617 0.0 102911
06:00−15ssw119617 0.0 102811
09:00−14s229519 0.0 102831
12:00−5s25814 0.0 1026167
15:00−4sse25864 0.0 1025156
18:00−11s249643 0.0 102551
21:00−11sse2695100 0.0 102381
9 december, thu
thu900:00−11sse3795100 0.0 1021116
03:00−8sse3992100 0.0 1019198
06:00−7sse41191100 0.0 1016290
09:00−6s41090100 0.0 1014292
12:00−3ssw41096100 0.9 1013586
15:00−2wsw4987100 1.3 1013614
18:00−4nw3994100 0.4 1016486
21:00−8nw512815 0.4 1021444